sat.trackr.live / text

‹ back to catalog

KUIPER-00104

NORAD 65142 · 2025-171L

PAYLOAD ACTIVE UNKNOWN

§ Identity

Operator
Country
US
Launch date
2025-08-11
Launch site
AFETR
Launch vehicle
Mass (kg)
RCS (m²)

External: N2YO · Heavens-Above · Gunter

§ Orbital elements

Epoch: 2026-09-21T13:08:41.966880Z

Period
97.30 min
Inclination
51.9029°
Eccentricity
0.0000424
Mean motion
14.79931047 rev/d
Perigee alt
629.2 km
Apogee alt
629.8 km
Semi-major
7,007.7 km
B*
3.1687e-4
RAAN
11.9807°
Arg perigee
104.7154°
Mean anomaly
255.3855°
Rev number
6,189

§ Raw data

KUIPER-001041 65142U 25171L   26264.54770795  .00002195  00000+0  31687-3 0  99922 65142  51.9029  11.9807 0000424 104.7154 255.3855 14.79931047 61896

JSON: /api/v1/satellites/65142 · /tle

For live sub-satellite position, see the globe view (requires WebGL).

§ Visibility from observer

Set your observer location to see the next 7 days of passes ≥ 10°. The values pass through the URL so the page stays shareable.

No JS? Fill the form by hand. The geolocation button needs JavaScript.